Location: Hickory_CSC
(35.7330°N, 81.3330°W)
Time: 02:33:55
(UTC-04:00)

ISS - All Passes

Search period start: 21 April 2015 00:00
Search period end: 01 May 2015 00:00
Orbit: 395 x 403 km, 51.6° (Epoch: 20 April)

Date Brightness Start Highest point End Pass type
(mag) Time Alt. Az. Time Alt. Az. Time Alt. Az.
21 Apr - 13:46:34 10° SSW 13:49:43 52° SE 13:52:55 10° ENE daylight
21 Apr - 15:24:03 10° WNW 15:26:19 17° NNW 15:28:33 10° NNE daylight
21 Apr - 20:16:38 10° NNW 20:19:08 20° NNE 20:21:39 10° E daylight
21 Apr - 21:52:32 10° WNW 21:55:37 38° SW 21:58:38 10° SSE visible
22 Apr - 12:53:10 10° S 12:55:47 23° SE 12:58:26 10° ENE daylight
22 Apr - 14:29:09 10° W 14:32:03 29° NW 14:34:57 10° NNE daylight
22 Apr - 19:23:16 10° N 19:24:47 13° NNE 19:26:22 10° NE daylight
22 Apr - 20:58:19 10° NW 21:01:35 88° NE 21:04:50 10° SE visible
23 Apr - 12:01:12 10° SE 12:01:49 11° SE 12:02:36 10° ESE daylight
23 Apr - 13:34:38 10° WSW 13:37:51 58° NW 13:41:04 10° NE daylight
23 Apr - 15:14:08 10° NNW 15:14:48 10° NNW 15:15:23 10° NNW daylight
23 Apr - 20:04:20 10° NW 20:07:26 39° NE 20:10:30 10° ESE daylight
23 Apr - 21:41:29 10° W 21:43:33 16° SW 21:45:32 10° SSW visible
24 Apr - 12:40:30 10° SW 12:43:41 59° SE 12:46:54 10° NE daylight
24 Apr - 14:18:11 10° WNW 14:20:19 16° NNW 14:22:24 10° NNE daylight
24 Apr - 19:10:29 10° NNW 19:13:05 22° NNE 19:15:42 10° E daylight
24 Apr - 20:46:31 10° WNW 20:49:30 34° SW 20:52:28 10° SSE visible
25 Apr - 11:46:51 10° S 11:49:34 25° SE 11:52:20 10° ENE daylight
25 Apr - 13:23:03 10° W 13:25:52 26° NNW 13:28:41 10° NNE daylight
25 Apr - 18:16:54 10° N 18:18:36 13° NNE 18:20:21 10° ENE daylight
25 Apr - 19:52:05 10° NW 19:55:20 82° SW 19:58:34 10° SE daylight
26 Apr - 10:54:16 10° SSE 10:55:26 12° SE 10:56:46 10° ESE daylight
26 Apr - 12:28:18 10° WSW 12:31:29 52° NW 12:34:40 10° NE daylight
26 Apr - 18:57:53 10° NW 19:01:01 44° NE 19:04:08 10° ESE daylight
26 Apr - 20:35:16 10° W 20:37:06 14° SW 20:38:51 10° SSW visible
27 Apr - 11:33:57 10° SW 11:37:09 67° SE 11:40:23 10° NE daylight
27 Apr - 13:11:49 10° WNW 13:13:49 15° NNW 13:15:45 10° N daylight
27 Apr - 18:03:52 10° NNW 18:06:32 23° NNE 18:09:13 10° E daylight
27 Apr - 19:39:59 10° WNW 19:42:54 30° SW 19:45:47 10° SSE daylight
28 Apr - 10:40:03 10° SSW 10:42:51 28° SE 10:45:43 10° ENE daylight
28 Apr - 12:16:27 10° W 12:19:11 24° NNW 12:21:55 10° NNE daylight
28 Apr - 17:10:03 10° N 17:11:53 14° NNE 17:13:47 10° ENE daylight
28 Apr - 18:45:20 10° NW 18:48:35 73° SW 18:51:48 10° SE daylight
29 Apr - 09:47:03 10° SSE 09:48:34 13° SE 09:50:12 10° E daylight
29 Apr - 11:21:29 10° WSW 11:24:37 47° NW 11:27:47 10° NE daylight
29 Apr - 17:50:58 10° NW 17:54:06 48° NE 17:57:15 10° ESE daylight
29 Apr - 19:28:35 10° W 19:30:10 13° SW 19:31:37 10° SSW daylight
30 Apr - 10:26:54 10° SW 10:30:07 75° SE 10:33:21 10° NE daylight
30 Apr - 12:04:57 10° WNW 12:06:48 14° NNW 12:08:36 10° N daylight
30 Apr - 16:56:44 10° NNW 16:59:28 25° NNE 17:02:14 10° E daylight
30 Apr - 18:32:58 10° WNW 18:35:48 27° SW 18:38:35 10° SSE daylight
